sat.trackr.live / text

‹ back to catalog

STARLINK-34816

NORAD 65467 · 2025-195K

PAYLOAD ACTIVE UNKNOWN

§ Identity

Operator
Country
US
Launch date
2025-09-03
Launch site
AFETR
Launch vehicle
Mass (kg)
RCS (m²)

Purposes: comms

External: N2YO · Heavens-Above · Gunter

§ Orbital elements

Epoch: 2026-09-20T21:06:45.959040Z

Period
94.01 min
Inclination
53.1575°
Eccentricity
0.0002791
Mean motion
15.31733974 rev/d
Perigee alt
468.7 km
Apogee alt
472.6 km
Semi-major
6,848.8 km
B*
6.3786e-4
RAAN
71.1526°
Arg perigee
76.1191°
Mean anomaly
284.0121°
Rev number
5,988

§ Raw data

STARLINK-348161 65467U 25195K   26263.87969860  .00019502  00000+0  63786-3 0  99912 65467  53.1575  71.1526 0002791  76.1191 284.0121 15.31733974 59883

JSON: /api/v1/satellites/65467 · /tle

For live sub-satellite position, see the globe view (requires WebGL).

§ Visibility from observer

Set your observer location to see the next 7 days of passes ≥ 10°. The values pass through the URL so the page stays shareable.

No JS? Fill the form by hand. The geolocation button needs JavaScript.